Location: Bellflower
(33.8817°N, 118.1170°W)
Time: 23:45:32
(UTC+00:00)

FALCON 9 DEB - Pass Details

Date: 23 November 2020
Orbit: 376 x 396 km, 53.0° (Epoch: 20 January)

Event Time Altitude Azimuth Distance (km) Brightness Sun altitude
Rises 13:46:11 0° 218° (SW) 2,264 6.6 -9.9°
Reaches altitude 10° 13:48:14 10° 216° (SW) 1,418 5.6 -9.4°
Maximum altitude 13:51:23 68° 133° (SE) 427 3.3 -8.8°
Drops below altitude 10° 13:54:35 10° 50° (NE) 1,441 6.2 -8.2°
Sets 13:56:41 0° 47° (NE) 2,306 7.2 -7.8°
